www.pogodaiklimat.ru

Погода и климат >> Архив погоды >> Россия >> Ростовская область >> Белая Калитва


ПОГОДА в Белой Калитве

  • Прогноз погоды в Белой Калитве
  • Монитор погоды в Белой Калитве

АРХИВ ПОГОДЫ в Белой Калитве

Время (UTC), дата Ветер
(напр.,м/с)
 
Видим.   Явления Облачность Т
(С)
Тd
(С)
f
(%)
Тe
(С)
Тes
(С)
Комфортность P
(гПа)
Po
(гПа)
Тmin
(С)
Tmax
(С)
R
(мм)
R24
(мм)
S
(см)
00 16.08 ЮВ 5
{10}
20 км 3/0
[Ac trans]
+22.2 +5.7 34 +23 +23 комфорт 1009.9 991.9
03 16.08 ЮВ 5 20 км 10/6 600 м
[Sc Ac trans Ci fib]
+19.3 +7.2 45 +20 +20 1009.6 991.4 +19.3
06 16.08 ЮВ 6 20 км 9/5 600 м
[Sc Ac trans Ci fib]
+22.9 +13.9 57 +26 +27 жарко 1008.9 991.1
09 16.08 Ю 7-11
{12}
20 км 10/5 600 м
[Sc Ac As]
+25.9 +15.8 54 +29 +30 душно 1008.4 990.7
12 16.08 Ю 6
{12}
20 км 9/4 600 м
[Sc Ac As]
+28.8 +15.2 44 +32 +32 душно 1007.1 989.6
15 16.08 Ю 3
{10}
20 км 10/9 600 м
[Sc Ac As]
+28.1 +16.9 51 +32 +32 душно 1006.9 989.4 +30.0
18 16.08 С 2 20 км 10/10 600 м
[Sc]
+24.3 +17.6 66 +28 +28 душно 1006.4 988.7
21 16.08 В 2 20 км 10/6 600 м
[Sc Ac As]
+22.8 +17.5 72 +28 +28 душно 1007.8 990.0
00 17.08 СЗ 1 20 км 10/10 600 м
[Sc]
+22.0 +17.4 75 +26 +26 душно 1007.0 989.1
03 17.08 Ю 2 20 км 10/10 600 м
[Sc]
+22.0 +14.0 60 +25 +25 комфорт 1007.7 989.8 +21.3
06 17.08 Ю 3 20 км 10/10 600 м
[Cb calv]
+23.1 +11.4 48 +25 +25 комфорт 1008.1 990.2
09 17.08 З 1 20 км 10/10 300 м
[Cb calv]
+24.0 +14.9 57 +27 +27 жарко 1008.0 990.2
12 17.08 ЮЗ 2 20 км 8/4 600 м
[Cb calv Ac trans Ci fib]
+28.3 +15.3 45 +31 +35 душно 1007.7 990.2
15 17.08 СЗ 2 20 км 4/3 600 м
[Sc Ac trans]
+26.1 +16.7 56 +30 +30 душно 1007.8 990.2 +28.8
18 17.08 штиль 0 20 км ясно +22.2 +17.0 72 +27 +27 душно 1009.1 991.2
21 17.08 ЮВ 2 20 км ясно +20.3 +16.3 78 +24 +24 комфорт 1009.6 991.6
00 18.08 В 2 20 км ясно +18.7 +15.9 84 +20 +20 1009.7 991.6
03 18.08 В 2 20 км 3/3 600 м
[Sc]
+18.9 +16.1 84 +21 +21 комфорт 1009.7 991.6 +17.2
06 18.08 ЮВ 2 20 км 10/8 600 м
[Sc Ac trans Ci fib]
+24.5 +17.3 64 +28 +29 душно 1010.1 992.4
09 18.08 ЮВ 3 20 км 10/10 600 м
[Sc]
+26.9 +16.5 53 +30 +30 душно 1010.0 992.4
12 18.08 ЮВ 2
{10}
20 км 10/8 600 м
[Cb calv Ac As]
+25.1 +18.3 66 +30 +30 душно 1010.5 992.8
15 18.08 СЗ 2 20 км 10/9 600 м
[Sc Ac As]
+26.0 +17.5 59 +30 +30 душно 1011.0 993.3 +27.4
18 18.08 С 3 20 км 10/10 600 м
[Sc]
+22.5 +18.2 77 +28 +28 душно 1012.1 994.2
21 18.08 С 2 20 км 10/6 600 м
[Sc Ci fib]
+20.7 +17.9 84 +25 +25 комфорт 1012.7 994.6
00 19.08 СЗ 5 20 км 10/10 600 м
[Cb calv]
+20.0 +18.7 92 +23 +23 комфорт 1013.7 995.7
03 19.08 СЗ 4
{11}
20 км 10/4 600 м
[Sc Ci fib]
+18.1 +16.4 90 +18 +18 1013.8 995.5 +18.1
06 19.08 СЗ 3 20 км 8/0
[Ac trans Ci fib]
+23.5 +18.2 72 +28 +32 душно 1015.3 997.4
09 19.08 СЗ 4 20 км гроза без осадков 10/10 300 м
[Cb calv]
+22.7 +19.5 82 +29 +29 очень
душно
1015.7 997.7
12 19.08 СВ 3 20 км {гроза, ливн. осадки} 6/3 600 м
[Cb calv Ac trans]
+28.3 +19.4 59 +34 +38 очень
душно
1015.6 998.0
15 19.08 С 4 20 км 8/3 600 м
[Cb calv Ac trans]
+28.1 +17.5 53 +32 +33 душно 1015.8 998.2 +28.6 0.3
18 19.08 СЗ 3 20 км ясно +23.9 +19.6 77 +29 +29 душно 1017.1 999.2
21 19.08 СЗ 3 20 км ясно +20.9 +18.5 86 +26 +26 душно 1017.8 999.7
00 20.08 СЗ 3 20 км ясно +18.8 +17.5 92 +20 +20 1017.6 999.4
03 20.08 СЗ 3 20 км ясно +17.6 +16.4 93 +18 +18 1018.4 1000.0 +17.5
06 20.08 СЗ 5 20 км ясно +24.2 +17.6 67 +28 +32 душно 1018.3 1000.4
09 20.08 С 4 20 км ясно +31.5 +14.7 36 +33 +43 жарко 1017.8 1000.3
12 20.08 С 3 20 км ясно +33.8 +14.0 30 +35 +42 очень
жарко
1016.7 999.3
15 20.08 С 5
{10}
20 км ясно +31.7 +14.6 36 +34 +34 душно 1016.9 999.4 +33.8
18 20.08 С 6-10
{10}
20 км ясно +26.2 +15.4 51 +29 +29 жарко 1018.0 1000.2
21 20.08 СВ 6
{10}
20 км ясно +23.2 +14.8 59 +27 +27 душно 1018.6 1000.5
00 21.08 СВ 7
{10}
20 км ясно +21.2 +15.2 69 +24 +24 комфорт 1018.5 1000.4
03 21.08 СВ 6
{10}
20 км 3/0
[Ci fib]
+19.6 +15.2 76 +21 +21 комфорт 1018.5 1000.3 +19.6
06 21.08 СВ 6
{10}
20 км 4/0
[Ci fib]
+25.1 +15.6 56 +28 +31 жарко 1018.5 1000.7
09 21.08 СВ 6
{10}
20 км 10/0
[Ci fib]
+31.5 +15.0 37 +34 +38 душно 1017.2 999.7
12 21.08 СВ 6
{11}
20 км 10/0
[Ci fib]
+33.0 +13.1 30 +34 +37 очень
жарко
1015.8 998.4
15 21.08 СВ 6-10
{10}
20 км 6/0
[Ci fib]
+32.5 +12.5 30 +33 +33 жарко 1015.1 997.7 +34.1
18 21.08 СВ 5
{10}
20 км 6/0
[Ci fib]
+26.9 +11.5 38 +28 +28 жарко 1016.0 998.2
21 21.08 СВ 4 20 км ясно +24.0 +13.9 53 +26 +26 жарко 1016.0 998.1
00 22.08 СВ 6 20 км ясно +23.4 +13.5 54 +27 +27 душно 1016.2 998.2
03 22.08 СВ 5 20 км ясно +20.9 +13.7 63 +24 +24 комфорт 1016.8 998.6 +20.9
06 22.08 СВ 5 20 км ясно +26.9 +14.2 46 +29 +33 жарко 1016.6 998.8
09 22.08 СВ 5
{11}
20 км ясно +32.8 +8.9 23 +32 +39 жарко 1015.8 998.3
12 22.08 СВ 5
{10}
20 км ясно +34.7 +9.1 21 +33 +38 жарко 1014.8 997.4
15 22.08 СВ 4
{10}
20 км ясно +33.2 +8.2 21 +32 +32 жарко 1014.5 997.1 +34.9
18 22.08 СВ 4 20 км ясно +28.6 +10.5 32 +29 +29 жарко 1015.9 998.2
21 22.08 СВ 5 20 км 3/0
[Ci fib]
+24.0 +14.3 55 +27 +27 жарко 1016.5 998.5

 

Местоположение метеостанции Белая Калитва (Ростовская область, Россия): широта 48.23 долгота 40.82 высота над уровнем моря 156 м.

В архиве по умолчанию представлена погода в Белой Калитве за последнюю неделю. Архивные данные за месяц целиком и за предыдущие месяцы, начиная с января 2011 года, Вы можете получить, выбрав интересующий диапазон дат из раскрывающегося списка и нажав кнопку "Ввод!".


*Определитесь, кто Вы:
робот инопланетянин человек

Внимание! Время в таблицах - всемирное. Для получения местного времени необходимо прибавить поправку, которая равна 3 ч.

Смотрите также архив погоды в соседних городах и на ближайших метеорологических станциях:

Погода в Каменск-Шахтинском (Ростовская область, Россия) (39 км)
Погода в Шахтах (Ростовская область, Россия) (72 км)
Погода в Константиновске (Ростовская область, Россия) (75 км)
Погода в Морозовске (Ростовская область, Россия) (79 км)
Погода в Семикаракорске (Ростовская область, Россия) (79 км)
Погода в Миллерово (Ростовская область, Россия) (84 км)
Погода в Аэропорту Платов (Ростовская область, Россия) (106 км)
Погода в Цимлянске (Ростовская область, Россия) (118 км)
Погода в Ростове-на-Дону (Ростовская область, Россия) (130 км)
Погода в Боковской (Ростовская область, Россия) (133 км)

Пояснения к столбцам:

Ветер - указаны скорость ветра в м/с - средняя за 10 мин, порывы в срок и между сроками (в фигурных скобках) и направление, откуда дует ветер: С - северный, СВ - северо-восточный, В - восточный, ЮВ - юго-восточный, Ю - южный, ЮЗ - юго-западный, З - западный, СЗ - северо-западный.
Видимость - горизонтальная дальность видимости в метрах или километрах. При видимости от 1 до 10 км при отсутствии осадков обычно наблюдается дымка, при ухудшении видимости до 1 км и менее - туман. В сухую погоду видимость может ухудшаться дымом, пылью или мглою.
Явления - указаны атмосферные явления, наблюдавшиеся в срок или в последний час перед сроком; фигурными скобками обозначены явления, наблюдавшиеся между сроками (за 1-3 часа до срока); квадратными скобками обозначены град или гололедные отложения с указанием их диаметра в мм.
Облачность - указаны через наклонную черту общая и нижняя облачность в баллах и высота нижней границы облаков в метрах; квадратными скобками обозначены формы облаков: Ci - перистые, Cs - перисто-слоистые, Cc - перисто-кучевые, Ac - высококучевые, As - высокослоистые, Sc - слоисто-кучевые, Ns - слоисто-дождевые, Cu - кучевые, Cb - кучево-дождевые. Подробнее классификацию облаков см. в Атласе облаков (PDF).
T - Температура воздуха - температура, измеренная на высоте 2 м над землей.
Td - Температура точки росы - температура, при понижении до которой содержащийся в воздухе водяной пар достигнет насыщения.
f - Относительная влажность воздуха - влажноcть воздуха, измеренная на высоте 2 м над землей.
Te - Эффективная температура - температура, которую ощущает одетый по сезону человек в тени. Характеристика душности погоды. При расчете учитывается влияние влажности воздуха и скорости ветра на теплоощущения человека.
Tes - Эффективная температура на солнце - температура, которую ощущает человек, с поправкой на солнечный нагрев. Характеристика знойности погоды. Зависит от высоты солнца над горизонтом, облачности и скорости ветра. Ночью, в пасмурную погоду, а также при ветре 12 м/с и более поправка равна нулю.
P - Атмосферное давление - приведенное к уровню моря атмосферное давление.
Po - Атмосферное давление - измеренное на уровне метеостанции атмосферное давление.
Tmin - Минимальная температура - минимум температуры воздуха на высоте 2 м над землей.
Tmax - Максимальная температура - максимум температуры воздуха на высоте 2 м над землей.
R - Количество осадков - Количество выпавших осадков за период времени, мм. При наведении курсора мыши на число - период времени, за который выпало указанное количество осадков.
R24 - Количество осадков - Количество выпавших осадков за 24 часа, мм.
S - Снежный покров - Высота снежного покрова, см. При наведении курсора мыши на число - состояние снежного покрова и степень покрытия местности в баллах.